Find Starlink 31222

NORAD ID: 58828 Int'l Des: 2024-017 Owner: SPXS Country: US Constellation: starlink operational
LEOCIRCULAR

Current View

Loading 3D Globe...

About Starlink 31222

Starlink 31222 (NORAD 58828) is a starlink constellation satellite (v2 mini) launched Jan 24, 2024 by SPXS of US. It operates in LEO, CIRCULAR orbit with a mass of 730.00 kg.

About Starlink 31222

Description loading...

Upcoming Passes

Passes for default location (London). Set your location on the main map for personalized predictions.

Altitude History

Loading altitude history...

Two-Line Element Set

1 58828U 24017C 26167.52811781 -.00000147 00000-0 71612-5 0 9995
2 58828 53.1606 104.8845 0001410 97.0095 263.1066 15.30192797135197
Epoch: Jun 16, 2026 • Age: 14 hours

Current Status

Altitude 480.3 km
Velocity 7.63 km/s
Sub-Earth Point 50.30°N, 146.02°W
Launch Date Jan 24, 2024
Age 2.3 years
Type internet

Technical Details

Classification Payload
Mass 730.00 kg
Dry Mass 700.00 kg
Total Mass 730.00 kg
Length 0.30 m
Diameter 4.10 m
Span 29.00 m
Shape Box + pan
Manufacturer SPXS
Bus Type Starlink V2M
Phase Status In Orbit
Owner/State SPXS/US

Most Searched